Location: Rochester
(43.1610°N, 77.6109°W)
Time: 07:56:35
(UTC-05:00)

OTV 5 (USA 277) - Visible Passes

Search period start: 13 December 2018 00:00
Search period end: 23 December 2018 00:00
Orbit: 340 x 348 km, 54.5° (Epoch: 10 December)

Date Brightness Start Highest point End Pass type
(mag) Time Alt. Az. Time Alt. Az. Time Alt. Az.
13 Dec ? 05:52:09 47° N 05:52:30 51° NE 05:55:18 10° ESE visible
14 Dec ? 06:15:13 32° W 06:16:08 45° SW 06:18:52 10° SSE visible
15 Dec ? 05:06:54 17° ESE 05:06:54 17° ESE 05:07:43 10° ESE visible
15 Dec ? 06:38:22 12° WSW 06:39:32 14° SW 06:41:08 10° SSW visible
16 Dec ? 05:30:07 22° SSE 05:30:07 22° SSE 05:31:20 10° SSE visible
17 Dec ? 05:53:25 11° SSW 05:53:25 11° SSW 05:53:41 10° SSW visible
